,,PressureMeas_1m,,PRMeasQMR101_1,,RHStat155_1m_1,,SRMeasQMS101R_1m,,TAStat155_1m_1,,GenWind_1,,GenWind_1,
2017-07-21, 07:00:06,VALID,918.145,VALID,0.0,VALID,74.317,VALID,62.717,VALID,17.493,VALID,148.0,VALID,1.63,
2017-07-21, 07:01:06,VALID,918.153,VALID,0.0,VALID,75.828,VALID,66.652,VALID,17.324,VALID,161.0,VALID,1.411,
2017-07-21, 07:02:06,VALID,918.148,VALID,0.0,VALID,76.478,VALID,71.161,VALID,17.206,VALID,159.0,VALID,1.459,
2017-07-21, 07:03:06,VALID,918.159,VALID,0.0,VALID,75.691,VALID,73.755,VALID,17.247,VALID,155.0,VALID,1.725,
2017-07-21, 07:04:06,VALID,918.176,VALID,0.0,VALID,74.084,VALID,75.592,VALID,17.45,VALID,159.0,VALID,1.876,
2017-07-21, 07:05:06,VALID,918.193,VALID,0.0,VALID,73.028,VALID,79.185,VALID,17.649,VALID,159.0,VALID,1.829,
2017-07-21, 07:06:06,VALID,918.201,VALID,0.0,VALID,72.439,VALID,82.272,VALID,17.785,VALID,155.0,VALID,1.911,
2017-07-21, 07:07:06,VALID,918.212,VALID,0.0,VALID,72.272,VALID,83.931,VALID,17.864,VALID,152.0,VALID,1.858,
2017-07-21, 07:08:06,VALID,918.238,VALID,0.0,VALID,71.927,VALID,84.314,VALID,17.91,VALID,149.0,VALID,1.817,
2017-07-21, 07:09:06,VALID,918.258,VALID,0.0,VALID,71.853,VALID,84.173,VALID,17.964,VALID,149.0,VALID,1.781,
2017-07-21, 07:10:06,VALID,918.264,VALID,0.0,VALID,71.579,VALID,86.166,VALID,17.993,VALID,141.0,VALID,1.973,
2017-07-21, 07:11:06,VALID,918.273,VALID,0.0,VALID,70.78,VALID,89.948,VALID,18.06,VALID,145.0,VALID,2.328,
2017-07-21, 07:12:06,VALID,918.286,VALID,0.0,VALID,70.445,VALID,93.299,VALID,18.188,VALID,141.0,VALID,1.951,
2017-07-21, 07:13:06,VALID,918.296,VALID,0.0,VALID,72.128,VALID,93.678,VALID,18.054,VALID,140.0,VALID,1.839,
2017-07-21, 07:14:06,VALID,918.311,VALID,0.0,VALID,72.615,VALID,94.506,VALID,17.926,VALID,146.0,VALID,1.704,
2017-07-21, 07:15:06,VALID,918.327,VALID,0.0,VALID,72.49,VALID,95.588,VALID,17.902,VALID,150.0,VALID,1.788,
2017-07-21, 07:16:06,VALID,918.336,VALID,0.0,VALID,72.902,VALID,97.489,VALID,17.878,VALID,147.0,VALID,2.091,
2017-07-21, 07:17:06,VALID,918.356,VALID,0.0,VALID,73.307,VALID,107.487,VALID,17.833,VALID,148.0,VALID,2.135,
2017-07-21, 07:18:06,VALID,918.362,VALID,0.0,VALID,73.108,VALID,127.081,VALID,17.808,VALID,144.0,VALID,2.045,
2017-07-21, 07:19:06,VALID,918.395,VALID,0.0,VALID,73.319,VALID,143.418,VALID,17.846,VALID,140.0,VALID,1.618,
2017-07-21, 07:20:06,VALID,918.413,VALID,0.0,VALID,75.198,VALID,149.384,VALID,17.774,VALID,131.0,VALID,1.188,
2017-07-21, 07:21:06,VALID,918.43,VALID,0.0,VALID,77.039,VALID,152.724,VALID,17.703,VALID,131.0,VALID,1.153,
2017-07-21, 07:22:06,VALID,918.446,VALID,0.0,VALID,76.874,VALID,156.905,VALID,17.762,VALID,133.0,VALID,1.18,
2017-07-21, 07:23:06,VALID,918.464,VALID,0.0,VALID,76.453,VALID,160.293,VALID,17.88,VALID,139.0,VALID,1.223,
2017-07-21, 07:24:06,VALID,918.481,VALID,0.0,VALID,74.504,VALID,162.61,VALID,18.019,VALID,137.0,VALID,1.446,
2017-07-21, 07:25:06,VALID,918.502,VALID,0.0,VALID,73.728,VALID,164.582,VALID,18.203,VALID,140.0,VALID,1.23,
2017-07-21, 07:26:06,VALID,918.52,VALID,0.0,VALID,72.939,VALID,167.548,VALID,18.351,VALID,142.0,VALID,1.734,
2017-07-21, 07:27:06,VALID,918.524,VALID,0.0,VALID,70.89,VALID,170.034,VALID,18.478,VALID,141.0,VALID,1.693,
2017-07-21, 07:28:06,VALID,918.544,VALID,0.0,VALID,70.682,VALID,172.411,VALID,18.568,VALID,144.0,VALID,1.856,
2017-07-21, 07:29:06,VALID,918.56,VALID,0.0,VALID,70.357,VALID,176.179,VALID,18.638,VALID,146.0,VALID,1.911,
2017-07-21, 07:30:06,VALID,918.567,VALID,0.0,VALID,70.889,VALID,179.92,VALID,18.631,VALID,143.0,VALID,1.648,
2017-07-21, 07:31:06,VALID,918.571,VALID,0.0,VALID,71.484,VALID,180.504,VALID,18.587,VALID,148.0,VALID,1.864,
2017-07-21, 07:32:06,VALID,918.581,VALID,0.0,VALID,71.005,VALID,180.843,VALID,18.554,VALID,144.0,VALID,1.999,
2017-07-21, 07:33:06,VALID,918.593,VALID,0.0,VALID,71.684,VALID,186.828,VALID,18.491,VALID,140.0,VALID,1.757,
2017-07-21, 07:34:06,VALID,918.597,VALID,0.0,VALID,72.42,VALID,192.726,VALID,18.431,VALID,139.0,VALID,1.571,
2017-07-21, 07:35:06,VALID,918.617,VALID,0.0,VALID,72.2,VALID,199.471,VALID,18.471,VALID,139.0,VALID,1.587,
2017-07-21, 07:36:06,VALID,918.623,VALID,0.0,VALID,72.974,VALID,204.581,VALID,18.54,VALID,138.0,VALID,1.258,
2017-07-21, 07:37:06,VALID,918.634,VALID,0.0,VALID,73.969,VALID,210.004,VALID,18.548,VALID,129.0,VALID,1.433,
2017-07-21, 07:38:06,VALID,918.644,VALID,0.0,VALID,73.816,VALID,215.043,VALID,18.661,VALID,128.0,VALID,0.964,
2017-07-21, 07:39:06,VALID,918.673,VALID,0.0,VALID,74.468,VALID,219.805,VALID,18.771,VALID,129.0,VALID,1.156,
2017-07-21, 07:40:06,VALID,918.696,VALID,0.0,VALID,74.612,VALID,223.182,VALID,18.839,VALID,127.0,VALID,1.295,
2017-07-21, 07:41:06,VALID,918.712,VALID,0.0,VALID,74.437,VALID,227.907,VALID,18.959,VALID,129.0,VALID,1.27,
2017-07-21, 07:42:06,VALID,918.74,VALID,0.0,VALID,73.533,VALID,232.592,VALID,19.094,VALID,131.0,VALID,1.202,
2017-07-21, 07:43:06,VALID,918.734,VALID,0.0,VALID,72.552,VALID,237.232,VALID,19.191,VALID,139.0,VALID,1.606,
2017-07-21, 07:44:06,VALID,918.747,VALID,0.0,VALID,70.117,VALID,242.955,VALID,19.157,VALID,137.0,VALID,1.899,
2017-07-21, 07:45:06,VALID,918.745,VALID,0.0,VALID,70.307,VALID,248.07,VALID,19.105,VALID,142.0,VALID,1.934,
2017-07-21, 07:46:06,VALID,918.752,VALID,0.0,VALID,70.657,VALID,251.536,VALID,19.048,VALID,139.0,VALID,2.373,
2017-07-21, 07:47:06,VALID,918.775,VALID,0.0,VALID,69.563,VALID,255.804,VALID,19.04,VALID,147.0,VALID,2.364,
2017-07-21, 07:48:06,VALID,918.782,VALID,0.0,VALID,69.515,VALID,260.495,VALID,19.049,VALID,142.0,VALID,2.565,
2017-07-21, 07:49:06,VALID,918.787,VALID,0.0,VALID,69.262,VALID,264.777,VALID,19.051,VALID,143.0,VALID,2.405,
2017-07-21, 07:50:06,VALID,918.789,VALID,0.0,VALID,69.844,VALID,268.592,VALID,19.087,VALID,138.0,VALID,1.796,
2017-07-21, 07:51:06,VALID,918.793,VALID,0.0,VALID,70.614,VALID,272.05,VALID,19.165,VALID,137.0,VALID,2.162,
2017-07-21, 07:52:06,VALID,918.782,VALID,0.0,VALID,68.26,VALID,275.18,VALID,19.331,VALID,131.0,VALID,1.87,
2017-07-21, 07:53:06,VALID,918.767,VALID,0.0,VALID,69.473,VALID,278.863,VALID,19.5,VALID,133.0,VALID,1.687,
2017-07-21, 07:54:06,VALID,918.77,VALID,0.0,VALID,69.415,VALID,282.844,VALID,19.642,VALID,125.0,VALID,1.549,
2017-07-21, 07:55:06,VALID,918.76,VALID,0.0,VALID,69.075,VALID,287.019,VALID,19.788,VALID,124.0,VALID,1.628,
2017-07-21, 07:56:06,VALID,918.762,VALID,0.0,VALID,68.377,VALID,290.663,VALID,19.954,VALID,114.0,VALID,1.708,
2017-07-21, 07:57:06,VALID,918.77,VALID,0.0,VALID,68.83,VALID,294.77,VALID,20.093,VALID,121.0,VALID,1.096,
2017-07-21, 07:58:06,VALID,918.785,VALID,0.0,VALID,68.446,VALID,298.655,VALID,20.218,VALID,128.0,VALID,1.291,
2017-07-21, 07:59:06,VALID,918.801,VALID,0.0,VALID,67.652,VALID,302.445,VALID,20.343,VALID,119.0,VALID,1.233,
2017-07-21, 08:00:06,VALID,918.803,VALID,0.0,VALID,67.25,VALID,306.173,VALID,20.452,VALID,108.0,VALID,1.049,
2017-07-21, 08:01:06,VALID,918.812,VALID,0.0,VALID,68.095,VALID,309.71,VALID,20.568,VALID,117.0,VALID,0.919,
2017-07-21, 08:02:06,VALID,918.8,VALID,0.0,VALID,69.084,VALID,313.942,VALID,20.669,VALID,108.0,VALID,0.916,
2017-07-21, 08:03:06,VALID,918.79,VALID,0.0,VALID,67.643,VALID,317.465,VALID,20.757,VALID,123.0,VALID,1.41,
2017-07-21, 08:04:06,VALID,918.788,VALID,0.0,VALID,66.322,VALID,303.862,VALID,20.795,VALID,121.0,VALID,1.293,
2017-07-21, 08:05:06,VALID,918.789,VALID,0.0,VALID,68.402,VALID,322.248,VALID,20.835,VALID,122.0,VALID,0.831,
2017-07-21, 08:06:06,VALID,918.784,VALID,0.0,VALID,67.604,VALID,329.186,VALID,20.895,VALID,116.0,VALID,1.555,
2017-07-21, 08:07:06,VALID,918.794,VALID,0.0,VALID,67.741,VALID,332.045,VALID,20.919,VALID,133.0,VALID,0.834,
2017-07-21, 08:08:06,VALID,918.815,VALID,0.0,VALID,68.228,VALID,334.5,VALID,20.964,VALID,132.0,VALID,1.187,
2017-07-21, 08:09:06,VALID,918.818,VALID,0.0,VALID,68.688,VALID,337.61,VALID,20.975,VALID,116.0,VALID,1.464,
2017-07-21, 08:10:06,VALID,918.82,VALID,0.0,VALID,68.309,VALID,341.41,VALID,20.951,VALID,118.0,VALID,1.277,
2017-07-21, 08:11:06,VALID,918.838,VALID,0.0,VALID,70.318,VALID,345.014,VALID,21.016,VALID,122.0,VALID,0.986,
2017-07-21, 08:12:06,VALID,918.85,VALID,0.0,VALID,69.683,VALID,348.206,VALID,21.087,VALID,136.0,VALID,1.053,
2017-07-21, 08:13:06,VALID,918.862,VALID,0.0,VALID,67.965,VALID,352.748,VALID,21.102,VALID,144.0,VALID,1.369,
2017-07-21, 08:14:06,VALID,918.863,VALID,0.0,VALID,66.98,VALID,356.208,VALID,21.051,VALID,151.0,VALID,1.47,
2017-07-21, 08:15:06,VALID,918.879,VALID,0.0,VALID,67.019,VALID,361.413,VALID,20.956,VALID,150.0,VALID,1.429,
2017-07-21, 08:16:06,VALID,918.882,VALID,0.0,VALID,67.913,VALID,367.087,VALID,20.903,VALID,142.0,VALID,1.377,
2017-07-21, 08:17:06,VALID,918.885,VALID,0.0,VALID,68.164,VALID,370.868,VALID,20.886,VALID,154.0,VALID,1.255,
2017-07-21, 08:18:06,VALID,918.884,VALID,0.0,VALID,67.132,VALID,373.805,VALID,20.827,VALID,142.0,VALID,1.418,
2017-07-21, 08:19:06,VALID,918.874,VALID,0.0,VALID,67.945,VALID,378.231,VALID,20.814,VALID,146.0,VALID,1.21,
2017-07-21, 08:20:06,VALID,918.874,VALID,0.0,VALID,67.638,VALID,382.72,VALID,20.852,VALID,153.0,VALID,1.449,
2017-07-21, 08:21:06,VALID,918.871,VALID,0.0,VALID,65.7,VALID,386.417,VALID,20.852,VALID,153.0,VALID,1.521,
2017-07-21, 08:22:06,VALID,918.869,VALID,0.0,VALID,65.294,VALID,390.009,VALID,20.892,VALID,152.0,VALID,1.664,
2017-07-21, 08:23:06,VALID,918.867,VALID,0.0,VALID,65.915,VALID,393.82,VALID,20.93,VALID,147.0,VALID,1.369,
2017-07-21, 08:24:06,VALID,918.878,VALID,0.0,VALID,67.19,VALID,397.391,VALID,20.99,VALID,141.0,VALID,0.977,
2017-07-21, 08:25:06,VALID,918.878,VALID,0.0,VALID,67.648,VALID,401.024,VALID,21.115,VALID,131.0,VALID,1.266,
2017-07-21, 08:26:06,VALID,918.877,VALID,0.0,VALID,67.271,VALID,404.893,VALID,21.259,VALID,121.0,VALID,1.364,
2017-07-21, 08:27:06,VALID,918.888,VALID,0.0,VALID,68.659,VALID,408.632,VALID,21.401,VALID,126.0,VALID,0.884,
2017-07-21, 08:28:06,VALID,918.885,VALID,0.0,VALID,68.136,VALID,412.242,VALID,21.561,VALID,135.0,VALID,0.9,
2017-07-21, 08:29:06,VALID,918.888,VALID,0.0,VALID,66.724,VALID,416.039,VALID,21.672,VALID,147.0,VALID,1.197,
2017-07-21, 08:30:06,VALID,918.887,VALID,0.0,VALID,65.281,VALID,419.472,VALID,21.739,VALID,149.0,VALID,1.143,
2017-07-21, 08:31:06,VALID,918.888,VALID,0.0,VALID,65.079,VALID,423.182,VALID,21.829,VALID,156.0,VALID,1.202,
2017-07-21, 08:32:06,VALID,918.896,VALID,0.0,VALID,62.849,VALID,426.795,VALID,21.866,VALID,153.0,VALID,1.755,
2017-07-21, 08:33:06,VALID,918.897,VALID,0.0,VALID,62.523,VALID,429.371,VALID,21.789,VALID,156.0,VALID,1.609,
2017-07-21, 08:34:06,VALID,918.907,VALID,0.0,VALID,62.48,VALID,434.099,VALID,21.725,VALID,154.0,VALID,1.79,
2017-07-21, 08:35:06,VALID,918.918,VALID,0.0,VALID,63.03,VALID,437.829,VALID,21.704,VALID,156.0,VALID,1.543,
2017-07-21, 08:36:06,VALID,918.923,VALID,0.0,VALID,63.286,VALID,441.525,VALID,21.705,VALID,152.0,VALID,1.55,
2017-07-21, 08:37:06,VALID,918.934,VALID,0.0,VALID,64.011,VALID,444.167,VALID,21.717,VALID,148.0,VALID,1.317,
2017-07-21, 08:38:06,VALID,918.94,VALID,0.0,VALID,63.791,VALID,447.872,VALID,21.753,VALID,143.0,VALID,1.691,
2017-07-21, 08:39:06,VALID,918.937,VALID,0.0,VALID,65.072,VALID,451.731,VALID,21.762,VALID,149.0,VALID,1.454,
2017-07-21, 08:40:06,VALID,918.941,VALID,0.0,VALID,65.381,VALID,451.853,VALID,21.792,VALID,136.0,VALID,1.325,
2017-07-21, 08:41:06,VALID,918.935,VALID,0.0,VALID,64.871,VALID,452.954,VALID,21.832,VALID,146.0,VALID,1.281,
2017-07-21, 08:42:06,VALID,918.938,VALID,0.0,VALID,65.232,VALID,456.891,VALID,21.846,VALID,149.0,VALID,1.413,
2017-07-21, 08:43:06,VALID,918.941,VALID,0.0,VALID,65.03,VALID,463.371,VALID,21.739,VALID,153.0,VALID,1.479,
2017-07-21, 08:44:06,VALID,918.936,VALID,0.0,VALID,65.892,VALID,468.92,VALID,21.749,VALID,144.0,VALID,1.103,
2017-07-21, 08:45:06,VALID,918.926,VALID,0.0,VALID,66.21,VALID,473.651,VALID,21.819,VALID,149.0,VALID,1.39,
2017-07-21, 08:46:06,VALID,918.913,VALID,0.0,VALID,65.326,VALID,477.671,VALID,21.833,VALID,145.0,VALID,1.199,
2017-07-21, 08:47:06,VALID,918.908,VALID,0.0,VALID,65.117,VALID,481.102,VALID,21.936,VALID,134.0,VALID,1.334,
2017-07-21, 08:48:06,VALID,918.92,VALID,0.0,VALID,65.527,VALID,484.412,VALID,22.05,VALID,152.0,VALID,1.316,
2017-07-21, 08:49:06,VALID,918.937,VALID,0.0,VALID,65.002,VALID,487.64,VALID,22.116,VALID,139.0,VALID,1.206,
2017-07-21, 08:50:06,VALID,918.949,VALID,0.0,VALID,65.29,VALID,491.827,VALID,22.256,VALID,131.0,VALID,1.311,
2017-07-21, 08:51:06,VALID,918.954,VALID,0.0,VALID,63.565,VALID,494.854,VALID,22.359,VALID,137.0,VALID,1.778,
2017-07-21, 08:52:06,VALID,918.971,VALID,0.0,VALID,60.789,VALID,498.541,VALID,22.342,VALID,135.0,VALID,1.923,
2017-07-21, 08:53:06,VALID,918.98,VALID,0.0,VALID,61.915,VALID,501.769,VALID,22.363,VALID,138.0,VALID,1.688,
2017-07-21, 08:54:06,VALID,918.99,VALID,0.0,VALID,60.856,VALID,498.97,VALID,22.404,VALID,143.0,VALID,1.925,
2017-07-21, 08:55:06,VALID,919.009,VALID,0.0,VALID,60.435,VALID,477.822,VALID,22.409,VALID,141.0,VALID,1.867,
2017-07-21, 08:56:06,VALID,919.015,VALID,0.0,VALID,61.16,VALID,488.649,VALID,22.445,VALID,145.0,VALID,1.732,
2017-07-21, 08:57:06,VALID,919.03,VALID,0.0,VALID,61.989,VALID,498.49,VALID,22.501,VALID,153.0,VALID,1.664,
2017-07-21, 08:58:06,VALID,919.058,VALID,0.0,VALID,62.883,VALID,518.444,VALID,22.521,VALID,151.0,VALID,1.53,
2017-07-21, 08:59:06,VALID,919.06,VALID,0.0,VALID,63.378,VALID,525.234,VALID,22.596,VALID,145.0,VALID,1.062,
2017-07-21, 09:00:06,VALID,919.079,VALID,0.0,VALID,64.342,VALID,528.542,VALID,22.799,VALID,146.0,VALID,0.994,
2017-07-21, 09:01:06,VALID,919.08,VALID,0.0,VALID,62.988,VALID,531.253,VALID,22.959,VALID,147.0,VALID,1.304,
2017-07-21, 09:02:06,VALID,919.077,VALID,0.0,VALID,63.729,VALID,534.8,VALID,23.002,VALID,148.0,VALID,1.013,
2017-07-21, 09:03:06,VALID,919.084,VALID,0.0,VALID,62.736,VALID,537.544,VALID,23.076,VALID,152.0,VALID,1.342,
2017-07-21, 09:04:07,VALID,919.087,VALID,0.0,VALID,62.698,VALID,540.12,VALID,23.005,VALID,171.0,VALID,0.896,
2017-07-21, 09:05:07,VALID,919.098,VALID,0.0,VALID,63.436,VALID,542.723,VALID,23.128,VALID,166.0,VALID,1.027,
2017-07-21, 09:06:07,VALID,919.112,VALID,0.0,VALID,63.35,VALID,546.616,VALID,23.283,VALID,161.0,VALID,0.721,
2017-07-21, 09:07:07,VALID,919.115,VALID,0.0,VALID,63.903,VALID,549.671,VALID,23.437,VALID,165.0,VALID,0.973,
2017-07-21, 09:08:07,VALID,919.133,VALID,0.0,VALID,60.871,VALID,552.401,VALID,23.445,VALID,158.0,VALID,1.145,
2017-07-21, 09:09:07,VALID,919.137,VALID,0.0,VALID,60.993,VALID,555.409,VALID,23.297,VALID,158.0,VALID,1.147,
2017-07-21, 09:10:07,VALID,919.146,VALID,0.0,VALID,61.426,VALID,558.77,VALID,23.256,VALID,157.0,VALID,1.124,
2017-07-21, 09:11:07,VALID,919.151,VALID,0.0,VALID,60.411,VALID,561.826,VALID,23.245,VALID,156.0,VALID,1.018,
2017-07-21, 09:12:07,VALID,919.151,VALID,0.0,VALID,59.331,VALID,565.227,VALID,23.324,VALID,165.0,VALID,1.284,
2017-07-21, 09:13:07,VALID,919.147,VALID,0.0,VALID,57.622,VALID,568.295,VALID,23.429,VALID,154.0,VALID,1.574,
2017-07-21, 09:14:07,VALID,919.133,VALID,0.0,VALID,57.232,VALID,571.799,VALID,23.404,VALID,153.0,VALID,1.552,
2017-07-21, 09:15:07,VALID,919.136,VALID,0.0,VALID,56.885,VALID,574.879,VALID,23.391,VALID,155.0,VALID,1.754,
2017-07-21, 09:16:07,VALID,919.133,VALID,0.0,VALID,56.503,VALID,577.912,VALID,23.459,VALID,156.0,VALID,1.371,
2017-07-21, 09:17:07,VALID,919.142,VALID,0.0,VALID,56.699,VALID,581.413,VALID,23.531,VALID,156.0,VALID,1.4,
2017-07-21, 09:18:07,VALID,919.136,VALID,0.0,VALID,56.557,VALID,584.89,VALID,23.638,VALID,157.0,VALID,1.015,
2017-07-21, 09:19:07,VALID,919.137,VALID,0.0,VALID,58.003,VALID,586.987,VALID,23.858,VALID,176.0,VALID,0.82,
